Location: Unnamed
(51.5169°N, 0.1311°W)
Time: 06:21:35
(UTC+01:00)

Vanguard 1 - Pass Details

Date: 10 August 2024
Orbit: 649 x 3825 km, 34.2° (Epoch: 16 September)

Event Time Altitude Azimuth Distance (km) Brightness Sun altitude
Rises 03:46:15 0° 264° (W) 5,795 13.6 -14.5°
Reaches altitude 10° 03:49:53 10° 256° (WSW) 5,172 13.3 -14.1°
Maximum altitude 04:04:19 38° 196° (SSW) 4,421 12.9 -12.6°
Drops below altitude 10° 04:23:59 10° 139° (SE) 6,925 14.4 -10.4°
Sets 04:29:58 0° 133° (SE) 7,888 14.8 -9.7°
